TimeMDT,TemperatureF,Dew PointF,Humidity,Sea Level PressureIn,VisibilityMPH,Wind Direction,Wind SpeedMPH,Gust SpeedMPH,PrecipitationIn,Events,Conditions,WindDirDegrees,DateUTC
12:52 AM,27.0,25.0,92,30.22,10.0,Calm,Calm,-,N/A,,Clear,0,2012-11-03 06:52:00
1:52 AM,24.1,21.9,91,30.22,10.0,East,3.5,-,N/A,,Clear,80,2012-11-03 07:52:00
2:52 AM,25.0,23.0,92,30.21,10.0,ENE,4.6,-,N/A,,Clear,60,2012-11-03 08:52:00
3:52 AM,23.0,19.9,88,30.20,10.0,NNE,3.5,-,N/A,,Clear,20,2012-11-03 09:52:00
4:52 AM,21.9,19.9,92,30.22,10.0,Calm,Calm,-,N/A,,Clear,0,2012-11-03 10:52:00
5:52 AM,23.0,21.0,92,30.24,10.0,Calm,Calm,-,N/A,,Overcast,0,2012-11-03 11:52:00
6:52 AM,25.0,23.0,92,30.23,10.0,Calm,Calm,-,N/A,,Overcast,0,2012-11-03 12:52:00
7:52 AM,26.1,24.1,92,30.26,10.0,Calm,Calm,-,N/A,,Scattered Clouds,0,2012-11-03 13:52:00
8:52 AM,32.0,28.9,88,30.26,10.0,Calm,Calm,-,N/A,,Clear,0,2012-11-03 14:52:00
9:52 AM,39.9,34.0,79,30.25,10.0,Calm,Calm,-,N/A,,Clear,0,2012-11-03 15:52:00
10:52 AM,48.0,33.1,56,30.22,10.0,WSW,6.9,-,N/A,,Mostly Cloudy,250,2012-11-03 16:52:00
11:52 AM,54.0,33.1,45,30.19,10.0,WNW,4.6,-,N/A,,Clear,290,2012-11-03 17:52:00
12:52 PM,57.0,28.9,34,30.16,10.0,Variable,4.6,-,N/A,,Clear,0,2012-11-03 18:52:00
1:52 PM,57.9,28.0,32,30.14,10.0,WNW,4.6,-,N/A,,Clear,300,2012-11-03 19:52:00
2:52 PM,60.1,28.0,30,30.12,10.0,SW,5.8,-,N/A,,Clear,230,2012-11-03 20:52:00
3:52 PM,61.0,27.0,27,30.12,10.0,Calm,Calm,-,N/A,,Clear,0,2012-11-03 21:52:00
4:52 PM,57.9,27.0,31,30.12,10.0,Calm,Calm,-,N/A,,Clear,0,2012-11-03 22:52:00
5:52 PM,46.0,27.0,47,30.15,10.0,Calm,Calm,-,N/A,,Clear,0,2012-11-03 23:52:00
6:52 PM,39.0,27.0,62,30.18,10.0,ENE,5.8,-,N/A,,Clear,70,2012-11-04 00:52:00
7:52 PM,36.0,27.0,70,30.20,10.0,Calm,Calm,-,N/A,,Clear,0,2012-11-04 01:52:00
8:52 PM,30.9,25.0,79,30.19,10.0,Calm,Calm,-,N/A,,Clear,0,2012-11-04 02:52:00
9:52 PM,33.1,26.1,75,30.16,10.0,Calm,Calm,-,N/A,,Clear,0,2012-11-04 03:52:00
10:52 PM,32.0,27.0,82,30.14,10.0,WNW,3.5,-,N/A,,Clear,300,2012-11-04 04:52:00
11:52 PM,28.9,25.0,85,30.12,10.0,Calm,Calm,-,N/A,,Clear,0,2012-11-04 05:52:00